This is the latest recevied weather packets stored in our database for station/object N5SNT-2. If no packets are shown the sender has not sent any weather packets the latest 10 day(s).
| Time | Temp. | Humidity | Pressure | Rain* | Wind** | Luminosity | Snow |
|---|---|---|---|---|---|---|---|
| 1777072943 | 31.67° C | 50% | 1006 hPa | 0 mm | - | 212 W/m² | - |
| 1777072644 | 31.67° C | 52% | 1006 hPa | 0 mm | - | 231 W/m² | - |
| 1777072344 | 31.67° C | 54% | 1006 hPa | 0 mm | - | 237 W/m² | - |
| 1777072043 | 31.67° C | 52% | 1006 hPa | 0 mm | - | 266 W/m² | - |
| 1777071743 | 31.67° C | 52% | 1006 hPa | 0 mm | - | 278 W/m² | - |
| 1777071445 | 31.67° C | 53% | 1006 hPa | 0 mm | - | 276 W/m² | - |
| 1777071143 | 31.67° C | 54% | 1006 hPa | 0 mm | - | 297 W/m² | - |
| 1777070844 | 31.67° C | 54% | 1006 hPa | 0 mm | - | 311 W/m² | - |
| 1777070544 | 31.67° C | 55% | 1006 hPa | 0 mm | - | 335 W/m² | - |
| 1777070243 | 31.67° C | 54% | 1006 hPa | 0 mm | - | 342 W/m² | - |
| 1777069943 | 31.11° C | 54% | 1006 hPa | 0 mm | - | 355 W/m² | - |
| 1777069643 | 31.67° C | 55% | 1006 hPa | 0 mm | - | 368 W/m² | - |
| 1777069343 | 31.11° C | 58% | 1006 hPa | 0 mm | - | 420 W/m² | - |
| 1777069043 | 31.11° C | 57% | 1006 hPa | 0 mm | - | 442 W/m² | - |
| 1777068743 | 31.67° C | 55% | 1006 hPa | 0 mm | - | 463 W/m² | - |
| 1777068443 | 31.11° C | 57% | 1006 hPa | 0 mm | - | 491 W/m² | - |
| 1777068144 | 31.67° C | 57% | 1006 hPa | 0 mm | - | 529 W/m² | - |
| 1777067843 | 31.11° C | 56% | 1006 hPa | 0 mm | - | 536 W/m² | - |
| 1777067544 | 31.67° C | 57% | 1006 hPa | 0 mm | - | 570 W/m² | - |
| 1777067244 | 31.11° C | 57% | 1006 hPa | 0 mm | - | 254 W/m² | - |
| 1777066943 | 31.67° C | 57% | 1006 hPa | 0 mm | - | 419 W/m² | - |
| 1777066643 | 31.67° C | 57% | 1007 hPa | 0 mm | - | 629 W/m² | - |
| 1777066344 | 31.67° C | 56% | 1007 hPa | 0 mm | - | 636 W/m² | - |
| 1777066044 | 31.11° C | 58% | 1007 hPa | 0 mm | - | 650 W/m² | - |
| 1777065745 | 31.11° C | 58% | 1007 hPa | 0 mm | - | 665 W/m² | - |
* Rain latest hour (hover to see other rain measurements)
** Current wind speed in m/s (hover to see current wind gust speed)